Location: Bakov nad Jizerou
(50.4784°N, 14.9394°E)
Time: 09:21:41
(UTC+00:00)

Cosmos 1331 Rocket - Visible Passes

Search period start: 28 October 2021 00:00
Search period end: 07 November 2021 00:00
Orbit: 750 x 777 km, 74.0° (Epoch: 27 October)

Date Brightness Start Highest point End Pass type
(mag) Time Alt. Az. Time Alt. Az. Time Alt. Az.
28 Oct 6.2 03:48:34 10° N 03:52:47 24° NE 03:57:00 10° ESE visible
29 Oct 6.6 03:10:36 10° N 03:13:57 17° NE 03:17:19 10° E visible
29 Oct 4.3 04:51:37 10° NNW 04:56:53 74° ENE 05:02:09 10° SSE visible
30 Oct 6.8 02:33:01 10° NNE 02:35:01 12° NE 02:37:01 10° ENE visible
30 Oct 5.0 04:13:17 10° NNW 04:18:23 47° ENE 04:23:27 10° SE visible
31 Oct 5.7 03:35:04 10° N 03:39:45 31° NE 03:44:26 10° ESE visible
31 Oct 4.3 05:16:53 10° NNW 05:21:56 49° WSW 05:26:59 10° S visible
01 Nov 6.3 02:56:58 10° N 03:01:00 22° NE 03:05:03 10° E visible
01 Nov 4.0 04:38:20 10° NNW 04:43:37 79° WSW 04:48:53 10° SSE visible
02 Nov 6.7 02:19:03 10° N 02:22:09 15° NE 02:25:14 10° ENE visible
02 Nov 4.4 03:59:56 10° NNW 04:05:11 66° ENE 04:10:26 10° SE visible
03 Nov 6.9 01:41:41 10° NNE 01:43:10 11° NE 01:44:40 10° NE visible
03 Nov 5.1 03:21:38 10° NNW 03:26:39 42° ENE 03:31:39 10° SE visible
03 Nov 4.7 05:03:49 10° NW 05:08:31 34° WSW 05:13:13 10° SSW visible
03 Nov 6.1 18:03:02 10° S 18:03:37 13° S 18:03:37 13° S visible
04 Nov 5.8 02:44:01 13° N 02:47:59 29° NE 02:52:32 10° ESE visible
04 Nov 4.1 04:25:08 10° NNW 04:30:17 55° WSW 04:35:25 10° S visible
04 Nov 5.5 17:25:25 10° SSE 17:27:20 19° SE 17:27:20 19° SE visible
04 Nov 6.2 19:06:24 10° SW 19:07:36 17° SW 19:07:36 17° SW visible
05 Nov 6.3 02:07:10 16° NNE 02:09:13 20° NE 02:13:04 10° E visible
05 Nov 3.9 03:47:24 14° NNW 03:51:56 88° WSW 03:57:13 10° SSE visible
05 Nov 5.4 16:48:23 10° SE 16:50:58 17° ESE 16:50:58 17° ESE visible
05 Nov 4.8 18:27:45 10° SSW 18:31:13 43° SW 18:31:13 43° SW visible
06 Nov 6.7 01:30:28 14° NE 01:30:28 14° NE 01:33:08 10° ENE visible
06 Nov 4.5 03:10:43 27° N 03:13:29 59° ENE 03:18:41 10° SE visible
06 Nov 5.1 04:50:57 10° NW 04:55:02 24° W 04:59:12 10° SSW visible
06 Nov 3.8 17:49:26 10° S 17:54:32 65° ESE 17:54:42 64° E visible
06 Nov 6.3 19:32:44 10° WSW 19:34:56 20° W 19:34:56 20° W visible
